Weather in Sadovaya Roshcha

Russia / Kursk Oblast     51°17′07″N   36°04′57″E
temp.,
°C
wind,
m/s
gust,
m/s
humid.,
%
clouds,
%
prec.,
mm/h
press.,
hPa
HPBL,
m
20 june, sun
sun2000:00+16ene49895 0.0 1022162
03:00+15ene49915 0.0 1022172
06:00+16e511875 0.0 1021246
09:00+20e597594 0.0 1021465
12:00+24e686145 0.0 1021836
15:00+25e6863100 0.0 1019893
18:00+23e51073100 0.0 1019663
21:00+19ene4108696 0.0 1019202
21 june, mon
mon2100:00+17ene41185100 0.0 1019210
03:00+17ene5128088 0.0 1018236
06:00+17e5128287 0.0 1018260
09:00+22e61172100 0.0 1017329
12:00+25ese696173 0.0 1018581
15:00+27e6106330 0.0 1017932
18:00+25ese611716 0.0 1017748
21:00+21e4118521 0.0 1017198
22 june, tue
tue2200:00+19e412895 0.0 1017197
03:00+18e514826 0.0 1017258
06:00+18e513835 0.0 1017251
09:00+24ese586955 0.0 1018362
12:00+26ese5760100 0.0 1018607
15:00+28ese586399 0.0 1017985
18:00+27ese5973100 0.0 1017577
21:00+23e411895 0.0 1018217
23 june, wed
wed2300:00+21e5138566 0.0 1017256
03:00+19e412871 0.0 1018204
06:00+20ene51481100 0.0 1017254
09:00+24e51174100 0.0 1017374
12:00+26e576889 0.0 1018397
15:00+26ese4872100 0.0 1018361
18:00+27ese3875100 0.0 1018413
21:00+23e3381100 0.0 101935
24 june, thu
thu2400:00+22e358190 0.0 101982
03:00+21e3581100 0.0 101972
06:00+21e3784100 0.0 1020127
09:00+26e4771100 0.0 1019320
12:00+29ese465699 0.0 1020659
15:00+30e455481 0.0 1019916
18:00+29ene356897 0.0 1019305
21:00+24e338014 0.0 101933